Dewpoint
17 16 15 15 16 16 16 17 18 19 20 21 21 21 22 18 15 13 13 12 13 12 12 12 12 10 10 10 11 12 14 12 13 15 18 17 19 29 54 59 60 60 61 62 63 64 64 65 64 64 64 65 64 64 64 64 64 66 66 65 65 66 66 66 67 66 66 66 66 66 66 66 66 65 64 63 64 64 64 64 64 64 64 64 65 66
18 15 15 15 16 16 15 16 16 17 19 20 20 20 20 21 16 13 12 13 12 14 12 12 11 12 12 14 14 18 17 12 12 13 16 16 16 22 48 59 59 60 61 62 63 63 64 65 64 64 64 65 64 64 64 63 64 66 66 65 65 65 66 66 66 66 66 66 66 66 66 66 66 65 64 62 63 64 64 64 64 65 64 64 65 66
20 18 17 14 15 15 15 14 14 14 16 18 19 19 20 21 21 17 13 11 11 12 13 12 11 11 14 14 15 16 15 19 17 14 13 15 16 19 35 59 59 60 61 62 62 63 64 65 64 64 65 65 64 64 64 64 65 66 66 65 65 65 65 66 66 66 66 66 66 66 66 66 65 66 65 64 63 64 63 64 64 65 65 64 64 66
18 17 17 16 14 14 14 13 13 13 15 17 18 18 18 20 19 14 14 13 10 13 15 15 12 12 15 17 16 16 14 17 15 12 12 15 14 16 28 58 59 60 61 61 62 63 64 64 64 64 65 65 65 65 64 64 65 66 65 65 65 65 65 66 66 66 66 66 66 66 66 66 66 65 66 65 64 64 63 64 64 65 65 64 65 66
15 15 13 13 13 13 13 13 12 13 14 16 17 17 17 18 19 18 13 12 12 10 13 14 15 13 12 13 14 15 17 14 12 15 13 16 20 21 26 57 60 60 61 61 62 63 64 64 64 64 64 65 65 65 64 64 65 66 65 65 65 65 64 65 66 66 66 66 66 66 66 66 66 65 65 64 63 63 63 63 64 64 65 65 66 66
20 20 18 14 10 12 13 12 12 12 14 15 17 17 17 17 17 16 16 14 11 12 10 11 12 12 14 13 13 14 16 15 14 14 13 14 15 17 31 55 59 60 61 62 62 63 64 64 64 64 65 65 65 65 64 64 65 66 65 65 65 65 65 65 66 66 66 65 65 65 65 65 65 64 64 63 63 63 63 63 64 65 66 66 66 66
20 20 18 15 11 10 12 12 13 12 13 15 15 18 18 17 16 16 14 15 12 8 9 12 10 10 17 13 13 15 13 13 15 15 14 14 14 13 35 54 58 60 61 62 62 63 63 64 64 63 64 65 65 65 65 65 65 66 65 65 65 65 65 66 66 66 66 65 65 65 65 65 64 64 64 64 64 64 66 66 66 66 66 66 66 66
18 17 16 16 13 8 10 12 12 12 12 12 15 17 17 16 14 13 13 15 15 16 13 10 11 13 11 12 14 14 14 12 13 13 14 14 16 14 29 54 58 60 61 62 62 63 63 63 63 63 64 65 66 66 65 65 65 65 65 65 65 65 65 66 66 66 65 65 65 65 65 65 64 64 64 64 64 66 67 66 66 65 65 65 66 66
19 15 15 13 12 8 5 11 13 13 11 12 15 17 16 14 13 13 13 14 15 16 13 10 11 11 11 14 14 14 12 12 12 12 12 12 15 17 34 54 58 59 61 62 62 63 63 63 64 64 64 65 66 66 65 65 65 66 66 66 65 65 65 65 66 66 65 65 65 65 64 64 65 64 65 65 65 67 67 65 64 64 63 64 66 66
16 14 13 14 14 8 5 7 11 12 11 12 13 14 16 16 13 12 11 11 16 16 14 12 8 8 8 17 12 14 12 12 13 12 12 12 14 16 34 54 58 59 61 62 62 63 63 64 64 64 64 65 66 66 66 65 65 66 65 65 65 65 65 65 66 66 65 65 65 65 64 64 64 65 65 65 65 66 65 64 63 63 62 63 64 65
16 23 24 16 14 14 9 5 7 11 12 13 15 15 16 16 14 15 16 13 15 14 13 13 9 6 5 12 12 13 13 13 13 13 13 12 14 17 36 55 58 59 61 61 62 62 63 64 64 64 65 65 66 66 66 65 65 65 65 65 65 65 65 65 65 65 65 65 65 64 65 64 64 64 64 64 65 66 64 63 63 62 62 62 63 64
19 18 16 15 16 13 12 8 7 8 10 11 12 13 15 17 16 15 16 17 11 12 13 13 12 6 4 8 12 13 14 13 13 12 13 15 14 15 35 55 58 59 60 61 61 62 62 63 64 64 65 65 66 66 65 65 65 65 65 65 65 65 65 65 65 65 65 65 65 65 65 64 64 64 65 64 65 65 64 63 63 63 62 62 63 63
16 14 14 13 20 14 11 9 6 7 9 10 11 13 16 17 19 14 13 14 12 10 13 13 13 9 5 15 13 13 13 12 12 11 12 14 14 16 37 55 57 59 60 61 61 62 62 63 64 64 64 65 66 65 65 65 65 65 65 65 64 64 65 65 65 65 65 65 65 65 65 64 64 64 65 64 65 66 64 63 63 62 62 62 62 63
15 15 13 13 12 14 11 9 8 6 7 8 9 14 14 15 14 14 14 13 13 16 14 12 12 8 11 9 17 12 15 13 13 13 12 14 16 19 40 55 57 59 60 61 61 62 62 63 64 64 64 65 66 65 65 65 65 65 65 64 64 64 65 65 65 65 65 65 65 65 65 65 64 64 65 64 65 66 64 63 63 63 62 62 62 63
11 14 13 11 9 10 12 12 11 10 10 9 11 13 17 17 18 14 14 9 8 9 11 11 10 11 5 12 15 13 14 16 14 13 13 16 17 27 45 54 57 58 59 60 61 62 62 63 64 64 64 65 65 66 65 65 65 65 64 64 64 64 64 64 65 65 65 65 65 65 65 65 65 64 65 65 65 65 63 63 63 63 63 63 63 63
12 14 15 16 11 13 13 15 14 12 12 17 13 14 16 18 26 17 19 15 14 12 12 11 16 14 8 21 14 13 15 15 16 14 17 16 17 32 49 54 56 58 59 60 60 62 62 63 64 64 64 65 65 66 65 65 65 64 64 64 64 64 64 64 64 65 65 65 64 65 65 65 65 64 64 65 65 65 64 63 63 63 63 63 63 64
18 16 17 21 21 17 11 13 14 19 18 26 16 15 16 21 18 21 22 27 19 12 13 20 16 15 25 13 11 10 12 15 15 14 14 14 18 36 51 53 55 57 59 60 60 61 62 63 64 64 64 65 65 65 65 65 65 64 64 64 64 64 64 64 64 64 64 64 64 64 64 64 64 64 64 64 65 64 64 63 63 63 63 63 63 64
16 17 21 20 18 19 17 14 14 17 18 19 19 19 21 18 18 22 17 22 10 7 15 15 9 14 10 14 20 15 13 13 15 14 14 17 18 38 50 53 54 57 58 60 60 61 62 63 63 64 64 65 65 65 65 65 65 65 64 64 64 64 64 64 64 64 64 64 64 64 64 64 64 64 64 64 65 64 63 62 63 63 62 63 63 64
26 19 19 21 20 21 18 15 13 14 18 17 20 24 21 21 18 20 18 14 6 5 9 16 15 15 12 17 21 13 13 14 15 16 15 15 16 29 48 52 53 56 58 60 60 61 61 62 63 63 64 65 65 65 66 66 65 65 65 64 64 64 64 64 64 64 64 64 64 64 64 64 64 64 65 64 65 64 63 63 62 62 62 63 63 64
28 18 22 28 25 25 23 17 19 20 19 21 24 20 21 23 22 18 20 20 18 13 6 10 12 9 17 17 20 17 17 15 15 16 15 14 15 22 42 51 52 56 58 59 60 61 62 62 62 63 64 64 65 65 65 66 66 65 65 65 64 64 64 64 64 64 64 64 64 64 64 64 64 65 65 64 64 64 63 63 62 62 62 63 63 65
21 26 18 24 27 21 19 24 21 23 22 22 21 22 22 28 24 18 23 14 15 14 14 14 5 17 18 22 19 15 19 18 17 19 19 18 16 20 36 49 51 55 57 59 61 61 62 62 62 63 64 65 65 65 66 66 65 65 65 65 65 64 64 64 64 64 64 64 64 64 64 64 64 64 64 64 64 64 63 63 63 63 62 63 63 65
23 25 22 26 24 23 21 28 24 27 32 22 22 21 21 21 21 15 17 22 19 12 13 9 10 21 24 27 17 16 22 25 19 18 20 17 16 21 30 47 51 53 55 59 61 62 62 62 62 63 64 65 65 65 65 66 66 65 65 65 65 65 65 64 63 64 64 64 64 64 64 64 64 64 63 63 63 63 63 63 63 62 62 62 63 65
30 30 27 24 24 23 23 25 29 33 29 25 23 21 18 23 21 17 14 24 21 15 21 22 13 17 25 40 38 27 26 27 23 19 19 19 18 22 28 43 50 52 53 58 61 62 62 62 62 63 64 65 65 65 65 65 65 65 65 65 65 65 65 64 64 64 64 64 64 64 64 64 63 63 63 63 63 63 63 62 62 62 62 62 63 65
32 25 23 24 25 26 25 24 30 36 28 24 22 20 19 21 21 20 22 25 19 22 19 18 11 19 30 47 48 40 30 26 26 20 19 21 24 26 30 42 49 50 52 57 60 61 62 62 62 64 64 65 65 65 65 65 65 65 65 65 65 65 64 64 64 64 64 64 64 64 64 64 64 63 63 63 63 62 62 62 62 62 62 63 64 64
24 25 23 18 14 20 24 24 25 35 26 25 23 23 19 18 22 24 23 28 16 25 19 16 13 20 33 45 49 48 37 25 24 23 22 24 28 29 33 41 47 49 52 56 59 60 61 62 62 63 64 65 65 65 65 65 65 65 65 65 65 65 65 65 65 65 64 64 64 64 64 64 64 63 63 62 62 62 62 62 62 62 63 63 64 64
29 28 25 16 11 11 12 13 16 21 20 24 23 20 19 17 21 20 16 22 17 25 22 23 25 29 37 45 48 49 49 43 34 26 27 25 28 31 36 41 46 50 53 55 58 60 61 61 62 63 64 64 65 65 65 65 65 65 65 65 65 64 65 65 65 65 65 64 64 64 64 64 64 64 63 62 62 62 62 62 62 63 63 64 63 63
30 32 27 24 22 20 22 26 28 28 26 25 25 22 20 20 20 23 24 18 17 23 23 31 38 39 40 44 47 48 49 49 49 43 33 35 39 42 44 47 49 52 55 56 57 59 60 61 62 63 64 64 65 65 65 65 65 65 65 64 64 65 65 65 65 65 65 65 64 64 64 64 64 64 63 62 63 62 62 62 62 63 63 63 63 63
32 26 29 31 30 28 28 28 28 30 27 26 24 24 22 21 26 24 18 21 28 25 25 34 41 39 41 44 47 48 48 49 49 50 47 46 47 49 52 54 53 55 57 58 59 60 60 60 61 62 63 64 64 65 65 65 65 65 64 64 65 65 65 65 65 65 65 65 64 64 64 64 64 64 63 63 63 63 63 62 62 63 63 62 62 62
31 26 29 30 30 31 31 31 30 29 27 26 26 26 24 22 27 30 29 29 34 24 25 37 41 41 42 45 48 49 50 48 48 50 50 52 55 56 56 57 57 58 59 60 60 60 60 60 61 62 63 63 64 64 64 64 63 63 63 64 65 65 65 65 65 65 65 65 64 64 64 64 64 64 63 63 63 63 63 63 63 63 63 62 62 62
36 26 31 32 32 32 33 32 31 29 27 26 27 25 26 25 26 30 37 40 38 35 36 39 40 41 46 48 49 51 53 51 50 51 52 52 54 56 56 56 58 59 60 60 60 60 61 61 61 62 62 63 63 63 63 62 62 63 63 64 64 64 65 65 64 64 64 64 64 64 64 64 64 63 63 63 63 63 63 63 62 62 62 62 62 61
35 28 35 33 27 28 31 31 31 30 29 29 29 29 27 27 31 37 39 38 38 37 38 39 38 38 48 51 51 53 53 54 53 53 52 52 52 54 55 55 55 56 58 60 60 60 61 61 61 61 62 62 62 62 62 62 62 63 63 63 64 64 64 64 64 64 64 64 64 63 64 64 63 63 63 63 63 63 63 63 62 62 61 61 61 61
37 30 33 30 23 24 29 32 31 32 31 29 28 28 28 28 27 35 33 37 35 35 37 39 39 38 45 51 52 53 53 52 52 53 53 52 51 51 52 53 54 54 54 55 57 60 60 60 60 60 61 61 62 62 62 62 62 62 62 63 63 63 64 64 64 63 63 63 63 63 63 63 63 63 63 63 63 63 63 62 62 62 61 61 61 61
35 29 27 27 25 21 28 32 31 28 25 22 26 29 32 39 40 42 43 43 41 39 35 33 40 46 48 51 51 52 52 52 52 52 53 53 52 52 52 52 53 54 55 54 54 55 57 59 59 59 60 61 62 62 62 62 62 62 62 62 63 63 63 63 63 63 63 63 63 63 63 63 63 62 62 62 62 62 62 62 62 61 61 61 60 60
38 34 29 30 25 22 29 31 28 21 14 20 37 38 38 39 41 41 41 43 45 44 40 43 45 48 49 51 51 51 51 51 51 53 55 54 53 52 52 53 54 54 55 55 55 56 56 57 58 59 60 61 61 62 61 62 62 62 62 62 63 63 63 63 63 63 62 62 63 63 63 63 62 62 62 62 62 62 61 61 61 61 61 61 60 59
36 34 29 30 26 23 27 24 19 13 18 33 38 43 45 45 44 43 43 43 45 47 47 48 49 49 50 51 51 52 52 52 53 53 53 55 56 55 54 54 54 54 54 54 55 56 56 56 57 59 60 60 60 60 61 61 62 62 62 62 62 62 62 62 62 62 62 62 63 63 62 62 62 62 62 62 61 61 61 61 61 61 61 61 60 60
32 30 29 29 27 24 23 19 11 12 29 38 40 41 45 42 41 40 39 43 45 47 48 46 49 49 50 50 51 52 51 50 51 53 54 54 55 56 55 55 56 55 53 54 54 55 56 58 58 58 58 57 59 60 61 61 61 62 61 62 62 62 62 62 62 61 62 62 62 62 62 62 61 61 61 61 61 61 61 61 61 60 60 60 60 60
36 34 29 27 29 23 20 20 20 28 31 35 34 39 42 38 41 35 32 37 45 48 49 47 48 48 47 48 48 47 47 46 46 50 54 54 54 56 56 56 57 57 57 57 57 57 59 58 57 57 56 57 58 58 58 59 60 61 61 62 62 62 62 62 61 61 61 62 62 62 62 62 61 61 61 61 60 60 60 60 60 60 60 59 59 59
37 33 33 29 27 27 24 21 21 20 20 27 36 44 45 45 44 44 38 38 46 48 50 48 45 45 46 46 47 47 46 44 44 47 53 53 54 54 56 56 57 58 59 58 58 58 58 59 58 58 58 57 57 57 58 58 60 60 61 61 62 62 62 62 61 61 61 62 62 62 62 62 61 61 61 61 60 59 59 60 60 59 59 59 58 58
40 39 35 30 28 27 25 21 20 17 20 29 37 41 43 45 45 43 38 36 45 48 50 50 48 46 45 46 47 46 43 41 44 48 53 54 54 54 55 56 56 57 58 58 57 57 58 58 58 58 58 58 58 58 58 58 58 59 59 58 59 61 62 62 61 61 61 62 62 62 62 62 61 61 61 60 60 59 59 59 59 59 59 59 58 57
36 32 30 29 29 26 23 22 23 24 28 34 38 41 44 45 44 33 25 31 44 49 50 50 50 49 47 46 48 49 44 42 46 50 54 55 55 55 54 55 55 56 57 58 57 56 56 57 57 57 57 57 58 58 58 58 58 57 57 57 58 57 58 59 61 61 62 62 62 62 62 62 61 61 61 60 59 60 59 59 58 58 58 58 58 57
32 32 31 29 27 27 26 25 25 26 31 37 40 43 44 45 37 28 27 34 46 49 50 50 51 51 49 49 50 48 51 50 50 53 54 54 54 54 54 55 56 56 56 57 56 54 56 57 57 57 58 58 58 58 58 58 57 57 57 57 57 57 59 60 61 61 61 61 61 61 61 61 61 60 60 60 60 59 58 59 59 58 58 57 57 56
32 31 30 30 29 27 23 25 25 26 32 39 42 44 45 36 28 29 40 48 49 49 49 49 50 52 52 52 52 52 52 54 55 55 54 54 54 54 54 54 55 55 55 54 53 55 56 57 57 57 58 58 58 58 58 57 56 56 56 56 56 57 59 59 60 61 61 61 60 60 60 60 60 60 60 59 59 58 58 58 58 58 58 57 56 55
32 31 29 29 29 30 26 22 24 23 31 44 45 41 39 31 30 42 48 49 50 49 48 49 50 51 53 52 52 52 52 52 53 54 55 55 55 53 53 53 54 54 55 55 55 55 55 55 55 56 56 57 57 57 57 57 56 56 56 56 57 57 58 59 58 59 60 59 59 59 59 59 58 59 59 59 58 58 57 58 57 57 56 56 55 55
40 31 29 29 29 28 27 25 26 33 40 45 43 34 40 42 45 47 48 47 48 48 48 49 50 51 52 52 51 51 51 51 52 53 53 53 53 53 54 54 55 55 56 56 56 56 56 57 57 57 57 57 57 56 56 57 56 56 57 58 59 58 57 58 57 57 57 57 58 58 58 59 58 59 58 58 58 57 57 56 56 56 56 56 55 54
42 37 36 30 30 30 30 31 39 44 45 45 46 46 47 48 48 48 48 47 47 48 50 49 49 51 52 53 52 51 52 52 52 52 52 53 53 54 54 55 56 57 57 57 58 57 57 57 57 58 58 58 57 56 55 55 56 56 57 58 58 58 58 58 57 56 57 56 57 57 58 58 59 58 58 58 58 56 55 55 55 55 55 55 55 54
43 44 43 40 38 41 44 45 46 45 45 46 48 49 48 48 49 49 48 47 49 50 50 49 50 50 52 52 51 51 52 52 52 53 53 53 53 52 53 56 57 57 57 57 57 58 58 58 58 58 58 58 58 57 56 56 56 55 56 57 57 58 58 58 57 55 56 56 55 56 57 57 57 56 56 57 57 57 56 56 56 55 55 55 54 54
41 44 41 38 40 37 34 43 43 44 46 47 48 49 49 49 49 48 48 48 48 49 50 49 49 49 50 52 52 52 52 52 52 53 53 53 53 53 53 54 54 54 55 55 56 56 57 57 57 57 57 57 57 57 57 57 57 57 57 57 57 57 56 56 56 55 54 54 55 56 57 56 56 55 55 54 55 55 55 55 56 55 54 54 54 53
37 45 40 40 40 36 37 43 44 44 45 46 47 47 47 49 49 50 50 50 50 50 50 50 49 48 49 50 52 53 53 53 53 52 53 53 53 53 54 53 53 53 53 54 55 55 55 55 55 55 56 55 56 56 57 57 57 57 57 57 57 57 56 54 54 55 55 54 55 55 56 55 48 52 53 51 51 52 53 53 54 54 54 54 54 52
43 42 34 41 38 40 42 43 44 44 43 43 45 45 48 49 50 50 50 51 50 49 48 49 49 49 49 49 51 52 53 53 53 53 53 53 53 53 52 52 52 52 52 52 52 53 53 53 53 53 53 54 54 55 55 56 56 57 57 57 57 57 56 54 52 54 54 54 54 53 53 54 53 51 49 45 41 40 41 43 48 51 51 50 52 54
42 37 41 39 35 36 38 41 44 36 35 42 43 44 45 48 49 48 49 49 49 49 49 49 49 50 50 50 50 52 52 52 52 52 52 52 52 52 52 52 52 52 52 52 52 52 52 52 52 52 52 53 53 53 54 54 55 56 56 57 56 56 55 54 54 53 52 52 52 51 51 51 50 49 48 46 44 43 42 37 37 38 46 49 48 48
42 43 39 35 34 36 41 41 41 40 40 41 42 45 44 47 48 47 47 48 48 48 48 48 48 49 49 50 50 50 51 52 52 52 52 52 52 53 52 52 52 51 51 51 51 51 51 52 52 52 52 52 52 53 53 53 54 54 55 55 55 54 54 53 52 51 51 50 49 48 49 49 49 48 47 47 46 46 45 45 43 38 37 39 43 42